Regional Weather Roundup
Issued by NWS

Home | Current Version | Previous Version | Text Only | Print | Product List | Glossary Off
Versions: 1 2 3 4 5 6 7 8 9 10 11 12 13 14 15 16 17 18 19 20 21 22 23 24 25 26 27

000
ASUS45 KTFX 250810
RWRMT
MONTANA REGIONAL WEATHER ROUNDUP
NATIONAL WEATHER SERVICE GREAT FALLS MT
100 AM MST SAT FEB 25 2017

NOTE: "FAIR" INDICATES FEW OR NO CLOUDS BELOW 12000 FEET WITH NO
SIGNIFICANT WEATHER AND/OR OBSTRUCTIONS TO VISIBILITY.

MTZ001>007-043-250900-
WEST OF THE DIVIDE

CITY           SKY/WX    TMP DP  RH WIND       PRES   REMARKS
KALISPELL      PTCLDY    14  11  87 CALM      30.07F
MISSOULA       CLOUDY    22  16  78 CALM      30.10F
BUTTE          CLOUDY    17  13  84 SE5       29.97S
MULLAN PASS    CLOUDY    13  11  92 SW6       29.94F WCI   4
ANACONDA         N/A     19  10  68 SW3       30.00S
DEER LODGE       N/A     19   9  63 CALM      30.02F
EUREKA           N/A     19  12  73 SE7       30.08F WCI  10
HAMILTON         N/A     25  16  68 S3        30.07F
LIBBY            N/A     16  12  86 S3        30.10F
PLAINS           N/A     16   7  67 CALM      30.13S
RONAN            N/A     22  16  78 W1        30.10F
$$

MTZ008-052>055-250900-
SOUTHWEST MONTANA

CITY           SKY/WX    TMP DP  RH WIND       PRES   REMARKS
BOZEMAN        LGT SNOW  23  21  92 N7        29.99F FOG     WCI  15
DILLON         CLOUDY    20  13  74 SW12      29.97S WCI   8
W YELLOWSTONE  LGT SNOW  12   9  85 SW12G18   29.96F WCI  -2
ENNIS          CLOUDY    19  12  73 S13G20    30.02F WCI   7
THREE FORKS      N/A     24   6  46 CALM      29.99F
TWIN BRIDGES     N/A     21  15  78 E5        29.98F
$$

MTZ009-010-012-014-046-048-049-054-250900-
EAST SLOPES AND CENTRAL MONTANA

CITY           SKY/WX    TMP DP  RH WIND       PRES   REMARKS
CUT BANK       PTCLDY    10   7  87 SW5       29.97F
GREAT FALLS    PTCLDY    17  12  80 SW10      30.00F WCI   5
MALMSTROM AFB  PTCLDY    18  16  92 SW7       30.01F WCI   8
HELENA         CLOUDY    24  14  65 N3        30.02S
AUGUSTA        CLOUDY    17  13  86 SW5       29.96F
BOWMANS CRNR   MOCLDY    16  12  83 W8        29.96F WCI   6
CHOTEAU          N/A     19  16  86 SW5       30.00F
CONRAD           N/A     12   9  88 NW3       30.01F
POWER            N/A     14  12  90 W6        29.99F WCI   5
RAYNESFORD       N/A     18  15  88 E3        29.99F
ULM            MOCLDY    17  17  96 MISG      30.01F
$$

MTZ011-013-016-021-045-047-050-051-250900-
NORTH CENTRAL MONTANA

CITY           SKY/WX    TMP DP  RH WIND       PRES   REMARKS
HAVRE          PTCLDY    17  15  92 SW13      30.02F WCI   4
LEWISTOWN      CLOUDY    14  12  92 SW10      29.97F WCI   1
N BAR RANCH    CLOUDY    14   9  79 W6        29.98F WCI   5
CHINOOK          N/A     18  18 100 CALM      30.03F
DENTON         CLOUDY    22  18  85 W9        29.97F WCI  12
FORT BENTON      N/A     21  16  79 MISG      30.04F
GEYSER         CLOUDY    21  17  84 W10       29.98F WCI  10
GRASS RANGE      N/A     19  17  90 W13       29.95F WCI   7
JUDITH GAP     MOCLDY    14  11  89 CALM      29.95F
ROY              N/A     17  14  89 MISG      29.97F
STANFORD       MOCLDY    20  16  83 NW7       29.96F WCI  11
WINIFRED       MOCLDY    20  17  91 SW8       29.98F WCI  10
$$

MTZ017>020-022>027-061-062-250900-
NORTHEAST MONTANA

CITY           SKY/WX    TMP DP  RH WIND       PRES   REMARKS
GLASGOW        PTCLDY    16  12  84 W7        30.01F WCI   6
JORDAN           N/A     26  23  88 NW7       30.01S WCI  18
SIDNEY         LGT SNOW  27  25  93 N7        30.00F FOG     WCI  19
WOLF POINT     MOCLDY    19  16  88 W3        30.02F
PLENTYWOOD       N/A     18  16  93 W6        29.98F WCI   9
POPLAR           N/A     21  19  93 W3        30.01F VSB 1/4
SCOBEY           N/A      9   1  69 CALM      29.97F
$$

MTZ028>42-056>058-250900-
SOUTHCENTRAL AND SOUTHEAST MONTANA

CITY           SKY/WX    TMP DP  RH WIND       PRES   REMARKS
BAKER          CLOUDY    22  16  78 SW5       29.97F
BILLINGS       CLOUDY    23  20  88 SW10      30.01F WCI  12
LIVINGSTON     CLOUDY    24  12  60 W15       29.97F WCI  11
MILES CITY     CLOUDY    28  24  85 W6        29.99F WCI  22
BIG TIMBER     CLOUDY    21  19  93 S5        30.00F FOG
EKALAKA          N/A     23  17  78 SW2       29.92F
FORSYTH          N/A     27  27 100 W7        30.01F WCI  19
HARLOWTON      FLURRIES  16  14  92 W6        29.97F WCI   7
LAUREL           N/A     22  16  78 SW1       29.98F
$$

REGIONAL REPORTS...DAKOTAS

CITY           SKY/WX    TMP DP  RH WIND       PRES   REMARKS
WILLISTON      CLOUDY    23  20  88 NW3       29.99F
MINOT          LGT SNOW  25  21  85 SW9       29.95F FOG     WCI  15
DICKINSON      CLOUDY    19  14  81 S8        29.94F WCI   9
BEACH            N/A    N/A N/A N/A MISG        N/A
CROSBY           N/A     19  19 100 NW7       29.99F WCI  10
TIOGA          CLOUDY    21  21 100 W8        29.97F WCI  12
WATFORD CITY   LGT SNOW  23  23 100 SW3       29.99F
BISMARCK       CLEAR     15  12  88 SE5       30.03F
GRAND FORKS    PTCLDY    16   9  74 SW6       30.04F WCI   7
FARGO          CLEAR     15  12  88 CALM      30.06F
BUFFALO SD       N/A     21  16  81 W5        29.90F
RAPID CITY     CLEAR     13  10  88 CALM      29.98F
$$

REGIONAL REPORTS...WYOMING/IDAHO/WASHINGTON

CITY           SKY/WX    TMP DP  RH WIND       PRES   REMARKS
GILLETTE       PTCLDY    19  14  81 W12       29.95F WCI   7
SHERIDAN       CLOUDY    22  15  75 W6        29.98F WCI  14
BUFFALO WY     CLOUDY    16  13  88 NW3       29.94F
CODY           CLOUDY    14  10  84 CALM      29.97F
YELLOWSTONE LA   N/A      1  -1  91 CALM      29.93F
IDAHO FALLS    CLEAR     16   9  74 S9        30.08F WCI   4
SALMON         CLOUDY    25  21  86 S3        30.05S
BOISE          CLEAR     26  16  65 SE7       30.15S WCI  18
SPOKANE        FOG       21  19  92 SW5       30.14F VSB 1/16
$$

REGIONAL REPORTS...ALBERTA

CITY           SKY/WX    TMP DP  RH WIND       PRES   REMARKS
EDMONTON       PTCLDY     9   7  92 CALM      30.02F
CALGARY        LGT SNOW  14  10  85 SE6       29.94F WCI   5
LETHBRIDGE     CLOUDY    21 N/A N/A SE5       29.99F
MEDICINE HAT   FLURRIES  19  16  86 N6        30.03F WCI  11
WATERTON GATE    N/A     19  10  68 SW14G21     N/A  WCI   6
MILK RIVER       N/A     18  16  93 W7          N/A  WCI   8
ONEFOUR          N/A     16  16 100 N7          N/A  WCI   6
$$

REGIONAL REPORTS...SASKATCHEWAN

CITY           SKY/WX    TMP DP  RH WIND       PRES   REMARKS
SWIFT CURRENT  LGT SNOW  14  12  92 N12       29.99F WCI   0
REGINA         FLURRIES  18  16  93 NW14      30.00S WCI   4
SASKATOON      MOCLDY     7   1  78 NW6       30.08F WCI  -3
CYPRESS HILLS    N/A     16  12  86 N2          N/A
VAL MARIE        N/A     10   9  92 SE1         N/A
ROCKGLEN         N/A     16  14  93 NW6         N/A  WCI   7
$$




USA.gov is the U.S. government's official web portal to all federal, state and local government web resources and services.